Content
SEND FEEDBACK

Daily
Averages
Monthly
Summary
United Kingdom

COUNTY OAK, ENGLAND


Home > Europe > United Kingdom > England
Elevation: 203 feet     Latitude: 51 01N     Longitude: 000 10W

WEATHER
 
SELECT A DAY
Number of Records: 293,611;   Date Range: 7/1/96 - 8/18/14
 
SHARE

PRINT THIS DATA

[ ← Previous Day ]
WEATHER ALMANAC - JANUARY 24, 2013
[ Next Day → ]
[ °C ]   °F
Weather ElementAverageHighLow
Temperature33.4 °F33.8 °F (12:50 am)32 °F (3:50 am)
Dewpoint28.9 °F30.2 °F (4:20 am)26.6 °F (5:20 pm)
Humidity83.9 %93 % (4:20 am)75 % (5:20 pm)
Barometer30.01 in30.12 in (5:20 pm)29.80 in (12:50 am)
Wind Speed5.4 mph10.4 mph (3:20 am)
Wind Gust20.7 mph (10:20 am)
Weather ElementAverage
Visibility5.1 mi
Wind DirectionNE (48.5 °)

Weather ElementTotal
Precipitation---
Heating Degree Days32.1 (Base 65)
Averaged from 47 records on January 24, 2013
WEATHER CONDITIONS BREAKOUT
WIND DIRECTION BREAKOUT
WEATHER BY HOUR - JANUARY 24, 2013
[ °C ]   °F
Local TimeTemperatureDewpointHumidityBarometerVisibilityWind DirectionWind SpeedGust SpeedPrecipitationEventsConditions
12:50 AM33.8 °F28.4 °F81 %29.80 in5.6 miENE (70°)8.1 mphMostly Cloudy
1:20 AM33.8 °F28.4 °F81 %29.80 in5.6 miENE (70°)9.2 mphRain-SnowLight Rain
1:50 AM33.8 °F28.4 °F81 %29.83 in4.3 miENE (60°)8.1 mphRainRain
2:20 AM33.8 °F28.4 °F81 %29.83 in5.0 miNE (50°)8.1 mphSnowLight Snow
2:50 AM33.8 °F28.4 °F81 %29.83 in5.0 miNE (40°)9.2 mphSnowLight Snow
3:20 AM33.8 °F28.4 °F81 %29.86 in1.5 miNE (40°)10.4 mphSnowLight Snow
3:50 AM32.0 °F28.4 °F87 %29.86 in1.6 miENE (60°)10.4 mphSnowLight Snow
4:20 AM32.0 °F30.2 °F93 %29.89 in0.8 miNE (40°)5.8 mphSnowLight Snow
4:50 AM32.0 °F30.2 °F93 %29.89 in0.7 miNNE (30°)3.5 mphSnowLight Snow
5:20 AM32.0 °F30.2 °F93 %29.89 inNNE (30°)5.8 mphSnowLight Snow
5:50 AM32.0 °F30.2 °F93 %29.92 inNNE (20°)4.6 mphSnowLight Snow
6:20 AM32.0 °F30.2 °F93 %29.92 inNorth (10°)5.8 mphSnowLight Snow
6:50 AM32.0 °F30.2 °F93 %29.92 inNNE (30°)6.9 mphRainLight Rain
7:20 AM33.8 °F30.2 °F87 %29.95 in3.1 miNNE (30°)6.9 mphHaze
7:50 AM33.8 °F30.2 °F87 %29.95 in3.1 miNNE (30°)5.8 mphHaze
8:20 AM33.8 °F30.2 °F87 %29.95 in3.1 miNNE (30°)5.8 mphHaze
8:50 AM33.8 °F30.2 °F87 %29.98 in5.0 miNE (40°)5.8 mphOvercast
9:20 AM33.8 °F28.4 °F81 %29.98 in4.3 miNE (40°)8.1 mphMostly Cloudy
9:50 AM33.8 °F28.4 °F81 %29.98 in5.0 miNE (40°)9.2 mphMostly Cloudy
10:20 AM33.8 °F28.4 °F81 %30.01 in5.0 miNNE (30°)9.2 mph20.7 mphOvercast
10:50 AM33.8 °F30.2 °F87 %30.04 in5.0 miNNE (30°)6.9 mphOvercast
11:20 AM33.8 °F30.2 °F87 %30.04 in5.0 miVariable6.9 mphMostly Cloudy
11:50 AM33.8 °F30.2 °F87 %30.04 in5.0 miNNE (30°)5.8 mphMostly Cloudy
12:20 PM33.8 °F30.2 °F87 %30.04 in5.6 miNNE (30°)6.9 mphMostly Cloudy
12:50 PM33.8 °F30.2 °F87 %30.04 in6.2 miNE (40°)8.1 mphMostly Cloudy
1:20 PM33.8 °F30.2 °F87 %30.04 in6.2 miNE (50°)8.1 mphMostly Cloudy
1:50 PM33.8 °F28.4 °F81 %30.04 in6.2 miNE (50°)6.9 mphMostly Cloudy
2:20 PM33.8 °F28.4 °F81 %30.04 in6.2 miNE (40°)5.8 mphMostly Cloudy
2:50 PM33.8 °F28.4 °F81 %30.06 in6.2 miENE (60°)4.6 mphMostly Cloudy
3:20 PM33.8 °F28.4 °F81 %30.06 in6.2 miEast (80°)4.6 mphMostly Cloudy
3:50 PM33.8 °F28.4 °F81 %30.06 in6.2 miEast (90°)2.3 mphMostly Cloudy
4:20 PM33.8 °F28.4 °F81 %30.09 in6.2 miENE (70°)2.3 mphMostly Cloudy
4:50 PM33.8 °F28.4 °F81 %30.09 in6.2 miVariable2.3 mphMostly Cloudy
5:20 PM33.8 °F26.6 °F75 %30.12 in6.2 miVariable2.3 mphMostly Cloudy
5:50 PM33.8 °F26.6 °F75 %30.12 in6.2 miCalmMostly Cloudy
6:20 PM33.8 °F28.4 °F81 %30.12 in6.2 miVariable3.5 mphMostly Cloudy
6:50 PM33.8 °F26.6 °F75 %30.12 in6.2 miVariable3.5 mphMostly Cloudy
7:20 PM33.8 °F26.6 °F75 %30.12 in6.2 miEast (90°)3.5 mphMostly Cloudy
7:50 PM33.8 °F28.4 °F81 %30.12 in6.2 miEast (100°)2.3 mphMostly Cloudy
8:20 PM33.8 °F28.4 °F81 %30.12 in6.2 miEast (80°)3.5 mphMostly Cloudy
8:50 PM33.8 °F28.4 °F81 %30.12 in6.2 miVariable2.3 mphMostly Cloudy
9:20 PM33.8 °F28.4 °F81 %30.12 in6.2 miVariable2.3 mphMostly Cloudy
9:50 PM32.0 °F28.4 °F87 %30.12 in6.2 miWest (260°)3.5 mphMostly Cloudy
10:20 PM33.8 °F28.4 °F81 %30.12 in6.2 miWest (280°)3.5 mphOvercast
10:50 PM32.0 °F28.4 °F87 %30.12 in6.2 miESE (110°)3.5 mphOvercast
11:20 PM32.0 °F28.4 °F87 %30.12 in6.2 miCalmOvercast
11:50 PM32.0 °F28.4 °F87 %30.12 in5.6 miVariable2.3 mphOvercast
Hourly data recorded from EGKK, located miles away from County Oak, England







STORIES FROM OUR PARTNERS